Location: Unspecified
(54.1780°N, 0.0000°E)
Time: 04:43:27
(UTC+00:00)

Transit 2A - Pass Details

Date: 25 June 2019
Orbit: 596 x 962 km, 66.7° (Epoch: 16 August)

Event Time Altitude Azimuth Distance (km) Brightness Sun altitude
Rises 09:07:54 0° 314° (NW) 3,458 9.0 45.3°
Reaches altitude 10° 09:10:55 10° 302° (WNW) 2,452 8.3 45.7°
Maximum altitude 09:15:16 24° 251° (WSW) 1,603 7.6 46.2°
Drops below altitude 10° 09:19:17 10° 199° (SSW) 2,244 8.6 46.7°
Sets 09:21:55 0° 185° (S) 3,096 9.4 47.1°
